User: anonymous   Login
Location: Unspecified
(0.0000°N, 0.0000°E)
Time: 19:41:50
(UTC+00:00)
Language:

LilacSat-2 - Orbit

View from above orbital plane
View from above orbital plane
View from above satellite
View from above satellite

Ground track
Ground track

The orbit data is extracted from the following two-line orbital elements,

1 40908U 15049K   18145.93109879 +.00000301 +00000-0 +20360-4 0  9994
2 40908 097.4683 148.9183 0017689 105.0868 255.2322 15.13497711148006
Epoch (UTC): 25 May 2018 22:20:46
Eccentricity: 0.0017689
inclination: 97.4683°
perigee height: 513 km
apogee height: 538 km
right ascension of ascending node: 148.9183°
argument of perigee: 105.0868°
revolutions per day: 15.13497711
mean anomaly at epoch: 255.2322°
orbit number at epoch: 14800

The dashed part of the orbit path shows where the satellite is in the earth's shadow,  

DLR